CW9703 Weather Reports


Display with metric or nautical units.
time (UTC)temp
F
wind
direction
speed
MPH
gust
MPH
rain 1hr
in
rain 24hr
in
rain mn
in
humidity
%
barometer
mb
20171122103854 27 317 3.0 5.0 0.00 0.00 0.00 78 1024.0
20171122093253 28 300 1.0 4.0 0.00 0.00 0.00 77 1022.8
20171122091053 28 311 2.0 6.0 0.00 0.00 0.00 77 1022.5
20171122082652 28 310 3.0 5.0 0.00 0.00 0.00 75 1021.9
20171122080452 28 291 3.0 3.0 0.00 0.00 0.00 74 1021.7
20171122074251 28 294 1.0 3.0 0.00 0.00 0.00 73 1021.3
20171122061450 28 320 3.0 4.0 0.00 0.00 0.00 72 1019.9
20171122044649 29 319 5.0 10.0 0.00 0.00 0.00 69 1018.3
20171122042449 30 307 10.0 10.0 0.00 0.00 0.00 69 1017.9
20171122040248 30 306 7.0 10.0 0.00 0.00 0.00 68 1017.6
20171122034048 31 319 3.0 10.0 0.00 0.00 0.00 69 1017.2
20171122031848 31 330 4.0 9.0 0.00 0.00 0.00 71 1016.9
20171122023447 32 326 3.0 5.0 0.00 0.00 0.00 70 1016.2
20171122012846 33 340 3.0 7.0 0.00 0.00 0.00 68 1015.4
20171122010646 34 342 3.0 11.0 0.00 0.00 0.00 69 1015.1
20171122002246 35 308 8.0 10.0 0.00 0.00 0.00 67 1014.3
20171122000045 36 297 4.0 9.0 0.00 0.00 0.00 67 1013.7
20171121233845 36 278 5.0 10.0 0.00 0.00 0.00 68 1013.1
20171121231645 36 313 6.0 10.0 0.00 0.00 0.00 68 1012.7
20171121225449 36 344 8.0 12.0 0.00 0.00 0.00 69 1012.2
20171121223244 38 326 5.0 10.0 0.00 0.00 0.00 71 1011.4
20171121210443 42 291 6.0 12.0 0.00 0.00 0.00 59 1008.6
20171121204243 43 306 4.0 10.0 0.00 0.00 0.00 56 1007.7
20171121195842 44 290 9.0 17.0 0.00 0.00 0.00 55 1006.5
20171121183041 47 283 13.0 13.0 0.00 0.00 0.00 51 1004.6
20171121180841 48 284 9.0 12.0 0.00 0.00 0.00 56 1004.0
20171121174640 48 309 7.0 15.0 0.00 0.00 0.00 60 1003.4
20171121172440 48 265 10.0 21.0 0.00 0.00 0.00 62 1003.0
20171121170240 44 251 9.0 15.0 0.00 0.00 0.00 82 1003.0
20171121164040 43 194 6.0 9.0 0.00 0.00 0.00 84 1003.0
20171121161839 44 223 6.0 11.0 0.00 0.00 0.00 80 1002.8
20171121153439 44 254 14.0 16.0 0.00 0.00 0.00 79 1002.2
20171121151238 43 250 13.0 20.0 0.00 0.00 0.00 79 1001.9
20171121145038 42 238 15.0 20.0 0.00 0.00 0.00 80 1001.7
20171121140638 41 220 10.0 13.0 0.00 0.00 0.00 81 1001.7
20171121130037 40 221 10.0 16.0 0.00 0.00 0.00 79 1000.7
20171121115506 41 216 11.0 15.0 0.00 0.00 0.00 78 1000.6
20171121113236 41 209 11.0 18.0 0.00 0.00 0.00 77 1000.7
20171121111035 41 217 16.0 17.0 0.00 0.00 0.00 77 1001.0